STARLINK-1376, 45570

Orbit data source: Space-Track

STARLINK-1376, 45570 is a payload satellite owned by SpaceX/Seattle (US) in LEO that was launched on Wed, 22 Apr 2020 UTC via an FALCON 9 launch vehicle from the Air Force Eastern Test Range (AFETR). Payload-class satellites include a variety of spacecraft equipped with specific instruments for various scientific and technological missions. These include communications satellites like Starlink; space stations such as the ISS; scientific satellites like the Hubble; Earth observation satellites from companies like Planet Labs, Umbra, and HawkEye 360; GPS; miniature CubeSats for education and research; and military/defense satellites.

Loading next visibility...
Identifier
45570, 2020-025AR
Orbit
LEO
Country
Flag of USUS
Related business
Manufacturer
SpaceX/Seattle
Mission
Operational Commercial Communications
Bus & Motor
STARLINK, Unknown motor
Mass
260 kg wet, ~248 kg dry
Launch date (UTC)
2020-04-22 (6 years ago)
Launch vehicle
FALCON 9
Launch site
Air Force Eastern Test Range (AFETR)
Object type
Payload
Rocket body
Debris
Shape & HBR
Box + 1 Pan, 10.1 m
Radar Cross Section
13.562 m², Large (>1 m²)

Expand to show TLE details & history
Last TLE update: 18 hours ago

TLE from 18 hours ago
0 STARLINK-1376
1 45570U 20025AR  26073.22637588  .00006827  00000-0  24216-3 0  9990
2 45570  53.1626  56.7405 0002554  43.3900 316.7301 15.30236566326197
Epoch: 2026-03-14T05:25Z
TLE epoch observation values (Epoch: 2026-03-14T05:25:58.876Z)
Latitude
-0.00004°
Longitude
163.39456°
Altitude
474.732 km
Speed
7.63 km/s
True Right ascension
03h 46m 57s
True Declination
0° 00' 00"
Sunlit
Object was in daylight at epoch
Visualization orbit readout
Latitude
Unknown
Longitude
Unknown
Altitude
Unknown
Speed
Unknown
Apparent Right ascension
Unknown
Apparent Declination
Unknown
Sunlit
N/A
Visualization observer readout
Local Sidereal Time
03:26:11
Azimuth
Unknown
Elevation
Unknown
Doppler factor
Unknown
Orbital elements
Apogee altitude
477.112 km
Perigee altitude
473.612 km
Semi-major axis
6,853.499 km
Eccentricity
0.00026
Inclination
53.1626°
RAAN
56.7405°
Arg. of periapsis
43.39°
True anomaly
316.71003°
Mean anomaly
316.7301°
Eccentric anomaly
316.72007°
Mean motion
3.82538 °/min
Orbital period
94.11 mins
BSTAR
0.00024216
Loading maneuver chart data...
Computing Atmospheric mass density...

Documentation

Showing up to 5 results
|